Home   Weather   Halle   Past weeks

Flag for Germany Past Weather in Halle, Saxony-Anhalt, Germany — Yesterday and Last 2 Weeks

Now
41 °F

Clear.


Feels Like: 36 °F
Forecast: 37 / 50 °F
Wind: 8 mph from Northwest

Location: Leipzig-Schkeuditz

Current Time: Apr 25, 2017 at 10:44:03 pm

Latest Report: Apr 25, 2017 at 9:50 pm


Visibility: 10 mi

Pressure: 29.80 "Hg

Humidity: 76%

Dew Point: 34 °F

Location of HalleLocation

Past Weather in Halle — Graph

°F

Halle Temperature Yesterday

Maximum temperature yesterday: 59 °F (at 4:50 pm)
Minimum temperature yesterday: 30 °F (at 5:50 am)
Average temperature yesterday: 46 °F

High & Low Weather Summary for the Past Weeks

 TemperatureHumidityPressure
High59 °F (Apr 24, 4:50 pm)100% (Apr 12, 10:50 pm)30.60 "Hg (Apr 12, 10:50 pm)
Low28 °F (Apr 20, 3:50 am)37% (Apr 25, 6:50 pm)29.59 "Hg (Apr 25, 5:50 am)
Average44 °F71%30.08 "Hg
* Reported Apr 10 9:20 pm — Apr 25 9:20 pm, Halle, Weather by CustomWeather, © 2017

Note: Actual official high and low records may vary slightly from our data, if they occured in-between our weather recording intervals... More about our weather records

Advertising

Halle Weather History for the Previous 24 Hours

Scroll right to see more
 ConditionsComfort  
Time TempWeatherWind HumidityBarometerVisibility
9:20 pm
Tue, Apr 25
43 °FClear.7 mph71%29.77 "Hg10 mi
8:50 pm43 °FClear.8 mph71%29.77 "Hg10 mi
8:20 pm43 °FSunny.9 mph71%29.77 "Hg10 mi
7:50 pm45 °FSunny.14 mph66%29.74 "Hg10 mi
7:20 pm46 °FSunny.17 mph57%29.74 "Hg10 mi
6:50 pm50 °FSunny.14 mph37%29.74 "Hg10 mi
6:20 pm50 °FSunny.17 mph43%29.71 "Hg10 mi
5:50 pm52 °FSunny.20 mph41%29.71 "Hg10 mi
4:50 pm50 °FPartly sunny.18 mph54%29.71 "HgN/A
4:20 pm48 °FBroken clouds.16 mph62%29.71 "HgN/A
3:50 pm46 °FLight rain. Partly sunny.13 mph71%29.74 "HgN/A
3:20 pm45 °FMostly cloudy.14 mph76%29.74 "HgN/A
2:50 pm46 °FLight rain. Mostly cloudy.15 mph71%29.71 "HgN/A
2:20 pm46 °FMore clouds than sun.15 mph71%29.71 "HgN/A
1:50 pm46 °FMore clouds than sun.17 mph71%29.71 "HgN/A
1:20 pm45 °FMore clouds than sun.17 mph71%29.71 "HgN/A
12:50 pm45 °FLight rain. More clouds than sun.16 mph81%29.71 "HgN/A
12:20 pm45 °FLight rain. Partly sunny.8 mph81%29.71 "HgN/A
11:50 am45 °FLight rain. Partly sunny.7 mph76%29.68 "HgN/A
11:20 am45 °FLight rain. Partly sunny.13 mph76%29.68 "HgN/A
10:50 am45 °FPartly sunny.13 mph76%29.68 "HgN/A
10:20 am46 °FBroken clouds.15 mph76%29.65 "HgN/A
9:50 am45 °FBroken clouds.16 mph81%29.65 "HgN/A
9:20 am48 °FPartly sunny.13 mph66%29.62 "HgN/A
8:50 am48 °FSunny.13 mph66%29.59 "Hg10 mi
8:20 am46 °FSunny.10 mph71%29.59 "Hg10 mi
7:50 am46 °FSunny.10 mph66%29.59 "Hg10 mi
7:20 am45 °FSunny.9 mph71%29.59 "Hg10 mi
6:50 am43 °FSunny.7 mph76%29.59 "Hg10 mi
6:20 am43 °FSunny.9 mph76%29.59 "Hg10 mi
5:50 am43 °FClear.9 mph76%29.59 "Hg10 mi
4:20 am45 °FClear.9 mph71%29.62 "Hg10 mi
3:50 am43 °FClear.10 mph76%29.62 "Hg10 mi
3:20 am43 °FClear.9 mph76%29.62 "Hg10 mi
2:50 am45 °FClear.8 mph71%29.65 "Hg10 mi
2:20 am45 °FClear.9 mph71%29.65 "Hg10 mi
1:50 am46 °FClear.7 mph66%29.68 "Hg10 mi
1:20 am48 °FClear.9 mph62%29.68 "Hg10 mi
12:50 am48 °FClear.7 mph62%29.71 "Hg10 mi
12:20 am46 °FPassing clouds.6 mph66%29.71 "HgN/A
11:50 pm
Mon, Apr 24
48 °FClear.6 mph58%29.74 "Hg10 mi
11:20 pm48 °FClear.7 mph58%29.74 "Hg10 mi
10:50 pm50 °FClear.7 mph58%29.77 "Hg10 mi
Weather by CustomWeather, © 2017

See weather overviewHow to use our weather pages